User: anonymous   Login
Location: Narvik
(68.4360°N, 17.4370°E)
Time: 00:05:15
(UTC+02:00)
Language:

AO-73 - Orbit

View from above orbital plane
View from above orbital plane
View from above satellite
View from above satellite

Ground track
Ground track

The orbit data is extracted from the following two-line orbital elements,

1 39444U 13066AE  19234.99776225  .00000136  00000-0  22970-4 0  9990
2 39444  97.5602 246.8383 0058263 171.9189 188.2978 14.81960165309601
Epoch (UTC): 22 August 2019 23:56:46
Eccentricity: 0.0058263
inclination: 97.5602°
perigee height: 582 km
apogee height: 664 km
right ascension of ascending node: 246.8383°
argument of perigee: 171.9189°
revolutions per day: 14.81960165
mean anomaly at epoch: 188.2978°
orbit number at epoch: 30960

The dashed part of the orbit path shows where the satellite is in the earth's shadow,  

DLR